[[{"header":{"parameterUnit":"m.s-1","parameterCategory":1,"la1":30.2991,"la2":30.254,"lo1":-89.0895,"lo2":-89.0444,"dy":0.0017,"dx":0.0017,"nx":28,"ny":28,"refTime":"2023-03-30T21:00:00:Z","depth":0,"parameterNumber":2,"parameterNumberName":"U-component_of_WINDS"},"data":[0,0,0,0,0,0,0,0,0,0,0,0,0,0,0,0,0,0,0,0,0,0,0,0,0,0,0,0,0,0,0,0,0,0,0,0,0,0,0,0,0,0,0,0,0,0,0,0,0,0,0,0,0,0,0,0,0,0,-5.7698,-5.7698,0,-5.772,-5.772,-5.7721,-5.7612,-5.7609,-5.7606,-5.7603,-5.7625,-5.7628,-5.7632,0,0,0,0,0,0,0,0,0,0,0,0,0,-5.7563,-5.7566,-5.7698,-5.7698,-5.7699,-5.772,-5.772,-5.7721,-5.7613,-5.7609,-5.7605,-5.7601,-5.7623,-5.7628,-5.7632,0,0,0,0,0,0,0,0,0,0,0,0,0,-5.7607,-5.7567,-5.7698,-5.7647,-5.7643,-5.772,-5.7721,-5.7721,-5.7613,-5.7609,-5.7604,-5.7599,-5.7622,-5.7627,-5.7632,-5.7759,0,0,-5.7649,-5.7651,0,0,0,0,0,0,0,0,-5.7605,-5.7612,-5.7654,-5.7651,-5.7646,-5.7658,-5.7681,-5.7734,-5.7615,-5.7625,-5.7603,-5.7597,-5.764,-5.7643,-5.7658,-5.776,-5.7761,-5.7649,-5.7652,-5.7654,-5.7656,0,0,0,0,0,0,0,-5.7602,-5.7611,-5.7707,-5.7655,-5.765,-5.7624,-5.7625,-5.769,-5.7658,-5.7623,-5.7615,-5.762,-5.7636,-5.7653,-5.7657,-5.7762,-5.7649,-5.7654,-5.7657,-5.7659,-5.797,-5.7975,0,0,0,0,0,0,-5.7605,-5.7609,-5.7706,-5.7707,-5.7613,-5.763,-5.7631,-5.7659,-5.7657,-5.7652,-5.7624,-5.7614,-5.7646,-5.7651,-5.7658,-5.7805,-5.7654,-5.7659,-5.7662,-5.7965,-5.7971,-5.7977,0,0,0,0,0,0,-5.7603,-5.7615,-5.7705,-5.7656,-5.7665,-5.7637,-5.767,-5.7662,-5.7678,-5.7657,-5.7651,-5.7646,-5.7643,-5.765,-5.7735,-5.7805,-5.7662,-5.7667,-5.7959,-5.7967,-5.7974,-5.8102,0,0,0,0,0,0,-5.76,-5.7615,-5.7662,-5.7658,-5.7669,-5.7782,-5.7674,-5.7666,-5.7688,-5.7676,-5.7677,-5.7672,-5.764,-5.7728,-5.774,-5.7809,-5.7671,-5.7953,-5.7963,-5.7972,-5.8092,-5.8114,-5.8132,0,0,0,0,0,-5.7595,-5.7697,-5.7665,-5.7678,-5.7727,-5.7786,-5.7792,-5.7752,-5.7694,-5.7741,-5.7729,-5.7672,-5.7796,-5.7737,-5.7751,-5.7822,-5.7948,-5.796,-5.7971,-5.8083,-5.8109,-5.8132,0,0,0,0,0,0,-5.7709,-5.7695,-5.766,-5.7763,-5.7777,-5.7768,-5.7826,-5.7782,-5.7811,-5.7799,-5.7749,-5.775,-5.7843,-5.7842,-5.7777,-5.7946,-5.7862,-5.7877,-5.7942,-5.7967,-5.7987,-5.7984,-5.7675,0,0,0,0,0,-5.7747,-5.7796,-5.7781,-5.7874,-5.7883,-5.7854,-5.7878,-5.7847,-5.7858,-5.7863,-5.7856,-5.787,-5.7912,-5.794,-5.7977,-5.8093,-5.8091,-5.8149,-5.8169,-5.8186,-5.8198,-5.8259,-5.8284,-5.8015,-5.8015,-5.8014,0,0,-5.7824,-5.7823,-5.7856,-5.7897,-5.7904,-5.7956,-5.7859,-5.7918,-5.7956,-5.7872,-5.7951,-5.7948,-5.7959,-5.806,-5.8104,-5.8061,-5.8273,-5.82,-5.8214,-5.8217,-5.8273,-5.8299,-5.8321,-5.8023,-5.8021,-5.802,0,0,-5.799,-5.7995,-5.8073,-5.8082,-5.8094,-5.8075,-5.8094,-5.8093,-5.8087,-5.8166,-5.8104,-5.815,-5.8223,-5.8234,-5.8249,-5.8425,-5.8374,-5.8439,-5.8542,-5.8602,-5.8624,-5.8642,-5.8703,-5.8726,-5.8452,-5.8452,-5.8452,0,-5.8084,-5.816,-5.8118,-5.8182,-5.8201,-5.813,-5.8209,-5.822,-5.8244,-5.8259,-5.8212,-5.8303,-5.8306,-5.8408,-5.8452,-5.8467,-5.8487,-5.8436,-5.8624,-5.8642,-5.8659,-5.8716,-5.874,-5.8459,-5.8459,-5.8458,-5.8457,0,-5.8274,-5.8328,-5.839,-5.8415,-5.8443,-5.8514,-5.8483,-5.8516,-5.8484,-5.847,-5.8552,-5.8554,-5.8591,-5.8614,-5.8582,-5.8712,-5.8685,-5.8633,-5.8547,-5.8693,-5.8746,-5.8768,-5.847,-5.8468,-5.8465,-5.8463,0,0,-5.8508,-5.8513,-5.8536,-5.8547,-5.8557,-5.8597,-5.8667,-5.8703,-5.8732,-5.8753,-5.8808,-5.8874,-5.8825,-5.8843,-5.8813,-5.8866,-5.9004,-5.8806,-5.8805,-5.8841,-5.9146,-5.9184,-5.921,-5.8972,-5.8976,-5.898,-5.9144,0,-5.867,-5.8786,-5.8752,-5.8869,-5.8918,-5.8854,-5.8914,-5.8927,-5.8917,-5.8958,-5.8947,-5.8993,-5.8927,-5.8937,-5.8987,-5.8976,-5.9064,-5.8965,-5.9022,-5.9025,-5.9018,-5.9238,-5.9277,-5.9432,-5.9165,-5.9169,-5.9171,0,-5.8872,-5.8901,-5.9023,-5.9026,-5.9046,-5.91,-5.9132,-5.9172,-5.9186,-5.9175,-5.9198,-5.9157,-5.9225,-5.9143,-5.9236,-5.9169,-5.9192,-5.9191,-5.9196,-5.9197,-5.9104,-5.9242,-5.9481,-5.9503,-5.9204,-5.9201,-5.9199,0,-5.9028,-5.9098,-5.918,-5.9192,-5.9198,-5.9238,-5.9243,-5.9252,-5.9277,-5.9306,-5.9322,-5.9358,-5.9377,-5.9407,-5.9378,-5.9321,-5.9476,-5.9391,-5.9467,-5.9468,-5.9499,-5.9497,-5.9742,-5.952,-5.9519,-5.9519,-5.9519,0,-5.9209,-5.9286,-5.925,-5.93,-5.9385,-5.9347,-5.9432,-5.9429,-5.9439,-5.9488,-5.9436,-5.9483,-5.9444,-5.9488,-5.9466,-5.9546,-5.9556,-5.9549,-5.9541,-5.9551,-5.9552,-5.9562,-5.955,-5.9525,-5.9524,-5.9523,-5.9522,0,-5.9395,-5.9375,-5.9459,-5.946,-5.9462,-5.9524,-5.9525,-5.9571,-5.956,-5.9622,-5.9635,-5.9616,-5.9665,-5.9641,-5.9692,-5.9678,-5.978,-5.976,-5.9775,-5.9769,-5.9846,-5.9838,-6.0104,-6.0136,-5.9896,-5.9898,-5.99,0,-5.951,-5.9568,-5.9576,-5.9605,-5.9613,-5.9661,-5.9687,-5.9654,-5.9683,-5.9705,-5.9749,-5.9795,-5.9828,-5.991,-5.9901,-5.994,-5.9919,-6.001,-5.9924,-5.9933,-5.9917,-5.9913,-5.9918,-6.0025,-6.0028,-6.003,-6.0032,0,-5.9717,-5.9704,-5.9743,-5.978,-5.9813,-5.984,-5.9862,-5.989,-5.9857,-5.9893,-5.9943,-5.997,-6.0023,-6.0068,-6.0103,-6.0108,-6.0065,-6.006,-6.0079,-6.0088,-6.0094,-6.009,-5.9819,-6.0053,-6.0051,-6.0049,-6.0048,-6.0047,-5.9869,-5.9917,-5.993,-5.9976,-5.9991,-6.0014,-6.0058,-6.0053,-6.0094,-6.0135,-6.0114,-6.0172,-6.0187,-6.023,-6.0241,-6.0287,-6.0251,-6.0279,-6.0286,-6.0293,-6.0302,-6.009,-6.0293,-6.0293,-6.0292,-6.0292,-6.0291,0,-6.007,-6.0076,-6.0119,-6.0153,-6.019,-6.0149,-6.0173,-6.0206,-6.0258,-6.0277,-6.0312,-6.037,-6.0415,-6.0411,-6.0452,-6.049,-6.0471,-6.0501,-6.0496,-6.0498,-6.0333,-6.0311,-6.0516,-6.0516,-6.0516,-6.0516,-6.0516,-6.0515,-6.0178,-6.0258,-6.0248,-6.0335,-6.0341,-6.0398,-6.0416,-6.0437,-6.0451,-6.0519,-6.0556,-6.0554,-6.0564,-6.0606,-6.0645,-6.0643,-6.066,-6.0697,-6.0687,-6.0532,-6.051,-6.0488,-6.0467,-6.0702,-6.0702,-6.0848,-6.0849,-6.0851]},{"header":{"parameterUnit":"m.s-1","parameterCategory":1,"la1":30.2991,"la2":30.254,"lo1":-89.0895,"lo2":-89.0444,"dy":0.0017,"dx":0.0017,"nx":28,"ny":28,"refTime":"2023-03-30T21:00:00:Z","depth":0,"parameterNumber":3,"parameterNumberName":"V-component_of_WINDS"},"data":[0,0,0,0,0,0,0,0,0,0,0,0,0,0,0,0,0,0,0,0,0,0,0,0,0,0,0,0,0,0,0,0,0,0,0,0,0,0,0,0,0,0,0,0,0,0,0,0,0,0,0,0,0,0,0,0,0,0,3.2988,3.2988,0,3.301,3.3011,3.3011,3.3054,3.3055,3.3055,3.3056,3.3072,3.3072,3.3072,0,0,0,0,0,0,0,0,0,0,0,0,0,3.2978,3.2978,3.2988,3.2988,3.2989,3.301,3.3011,3.3011,3.3054,3.3055,3.3056,3.3057,3.3072,3.3072,3.3072,0,0,0,0,0,0,0,0,0,0,0,0,0,3.2989,3.2978,3.2988,3.3013,3.3015,3.301,3.3011,3.3011,3.3053,3.3055,3.3056,3.3057,3.3073,3.3072,3.3071,3.3042,0,0,3.307,3.3069,0,0,0,0,0,0,0,0,3.2989,3.299,3.3009,3.3011,3.3014,3.3031,3.3013,3.3021,3.3053,3.3039,3.3056,3.3058,3.3057,3.3058,3.3059,3.3043,3.3044,3.307,3.3069,3.3069,3.3069,0,0,0,0,0,0,0,3.2988,3.2989,3.2997,3.3009,3.3012,3.3021,3.3024,3.3015,3.304,3.304,3.3043,3.3046,3.3058,3.3059,3.306,3.3044,3.307,3.3069,3.3069,3.3069,3.3007,3.3005,0,0,0,0,0,0,3.2984,3.2988,3.2996,3.2997,3.3004,3.302,3.3024,3.3024,3.304,3.3044,3.3044,3.3048,3.306,3.306,3.306,3.3028,3.3069,3.3069,3.3068,3.3008,3.3006,3.3005,0,0,0,0,0,0,3.2984,3.2985,3.2995,3.2994,3.2996,3.3019,3.3019,3.3024,3.3025,3.3044,3.3048,3.3041,3.3061,3.3061,3.3047,3.3029,3.3068,3.3068,3.3009,3.3007,3.3006,3.2963,0,0,0,0,0,0,3.2983,3.2984,3.2974,3.2993,3.2996,3.2983,3.3018,3.3023,3.3024,3.3028,3.3042,3.3045,3.3062,3.3048,3.3047,3.3029,3.3067,3.3011,3.3009,3.3006,3.2966,3.2959,3.2954,0,0,0,0,0,3.2983,3.2959,3.2973,3.2974,3.2984,3.2982,3.2983,3.3005,3.3023,3.3012,3.3025,3.3045,3.3032,3.3046,3.3045,3.3027,3.3012,3.3009,3.3006,3.2968,3.2961,3.2954,0,0,0,0,0,0,3.2934,3.2962,3.2978,3.296,3.2969,3.2989,3.2976,3.2996,3.2997,3.3001,3.3026,3.3028,3.3011,3.3018,3.3033,3.3,3.3025,3.3022,3.2997,3.2989,3.2984,3.2982,3.3067,0,0,0,0,0,3.2922,3.292,3.2944,3.2925,3.2929,3.2952,3.2952,3.2968,3.2977,3.298,3.2992,3.2998,3.2995,3.2993,3.2991,3.2967,3.2971,3.2955,3.2949,3.2944,3.294,3.2929,3.2922,3.2995,3.2995,3.2995,0,0,3.2896,3.2911,3.2907,3.2916,3.2925,3.292,3.2955,3.2948,3.2945,3.2978,3.2967,3.2976,3.2984,3.2966,3.2958,3.297,3.2921,3.294,3.2936,3.2935,3.2925,3.2918,3.2912,3.2993,3.2994,3.2994,0,0,3.2846,3.2857,3.2844,3.2853,3.2866,3.2882,3.2879,3.2897,3.2905,3.2895,3.292,3.2916,3.2911,3.2917,3.2919,3.2874,3.2892,3.2873,3.2841,3.283,3.2824,3.2819,3.2803,3.2797,3.2869,3.2869,3.2869,0,3.281,3.2807,3.2834,3.2827,3.283,3.2864,3.285,3.2857,3.2868,3.2869,3.2884,3.288,3.2888,3.2871,3.2861,3.2861,3.2858,3.287,3.2823,3.2819,3.2814,3.2799,3.2793,3.2867,3.2867,3.2867,3.2867,0,3.2763,3.276,3.2748,3.2762,3.2763,3.2753,3.2777,3.2776,3.2793,3.2807,3.2796,3.2807,3.281,3.2807,3.2822,3.2793,3.2801,3.2819,3.2844,3.2804,3.2791,3.2785,3.2863,3.2864,3.2865,3.2865,0,0,3.2681,3.2712,3.2707,3.2714,3.2733,3.273,3.2722,3.2727,3.2725,3.2732,3.2725,3.2722,3.274,3.2742,3.2758,3.2748,3.2713,3.2768,3.2769,3.2757,3.2682,3.2667,3.266,3.2726,3.2725,3.2724,3.2681,0,3.2634,3.2623,3.2649,3.263,3.2628,3.2661,3.2654,3.2664,3.2677,3.2676,3.269,3.2688,3.2711,3.2713,3.2705,3.2719,3.2698,3.2722,3.2718,3.2717,3.2714,3.2653,3.2638,3.2597,3.2676,3.2675,3.2674,0,3.2578,3.2586,3.2568,3.259,3.259,3.2583,3.2591,3.259,3.2602,3.2612,3.2617,3.2637,3.2629,3.2655,3.2644,3.266,3.266,3.2666,3.2665,3.2665,3.2693,3.265,3.2584,3.2577,3.2666,3.2667,3.2667,0,3.252,3.2526,3.2517,3.2522,3.2547,3.2541,3.2551,3.2565,3.2567,3.2573,3.2574,3.2578,3.258,3.2582,3.2603,3.262,3.259,3.2617,3.2597,3.2596,3.2588,3.2588,3.252,3.2589,3.2589,3.2589,3.2589,0,3.2465,3.2453,3.2491,3.2485,3.2473,3.2502,3.2488,3.2501,3.2514,3.251,3.2538,3.2534,3.2562,3.2561,3.2577,3.2565,3.2566,3.2573,3.2577,3.257,3.2569,3.257,3.2573,3.2587,3.2588,3.2588,3.2588,0,3.2397,3.2423,3.2415,3.2441,3.2447,3.2436,3.2458,3.2453,3.2469,3.2464,3.2465,3.249,3.249,3.2511,3.2515,3.2526,3.2507,3.2516,3.2503,3.2506,3.2485,3.2487,3.2414,3.2406,3.2481,3.248,3.2479,0,3.236,3.2352,3.2378,3.2379,3.2389,3.2389,3.2393,3.2421,3.2423,3.2438,3.2431,3.2434,3.2437,3.2436,3.2453,3.2456,3.2465,3.244,3.2466,3.2459,3.2465,3.2465,3.2464,3.2434,3.2433,3.2432,3.2431,0,3.2292,3.2306,3.231,3.232,3.2324,3.2332,3.2341,3.234,3.2371,3.2372,3.2374,3.2377,3.2382,3.2385,3.2391,3.24,3.242,3.2424,3.2419,3.2411,3.2404,3.2408,3.2488,3.2425,3.2425,3.2426,3.2426,3.2426,3.2238,3.2233,3.2252,3.2256,3.2267,3.2276,3.2274,3.2291,3.2294,3.2302,3.2319,3.2318,3.2331,3.2343,3.235,3.2349,3.2362,3.2355,3.2353,3.2351,3.2347,3.2405,3.2351,3.2351,3.2351,3.2351,3.2351,0,3.2171,3.2186,3.219,3.2204,3.2208,3.223,3.2243,3.2244,3.2244,3.2255,3.226,3.2262,3.2265,3.2284,3.2289,3.2284,3.2294,3.2284,3.2284,3.2286,3.2336,3.2339,3.2277,3.2277,3.2277,3.2277,3.2277,3.2277,3.2137,3.213,3.2147,3.2146,3.2159,3.2161,3.2166,3.2175,3.2185,3.2187,3.2191,3.2204,3.2218,3.2225,3.2229,3.2234,3.2234,3.2221,3.223,3.2275,3.2283,3.2289,3.2293,3.2221,3.2221,3.218,3.218,3.2179]}]]